Погода в Доусоне

Канада     48°43′19″N   94°29′11″W
темп.,
°C
ветер,
м/с
пор.,
м/с
влажн.,
%
обл.,
%
осадки,
мм/ч
давл.,
гПа
погр.,
м
15 апреля, чт
чт1523:000с3994100 0.0 1026563
02:00−1с3794100 0.0 1026484
05:00−1с3696100 0.0 1027360
08:00−1ссз2696100 0.1 1027320
11:00+1с3592100 0.0 1026450
14:00+4с3485100 0.1 1024672
17:00+4ссз3485100 0.0 1024662
20:00+4ссз3690100 0.1 1024535
16 апреля, пт
пт1623:00+2ссз1393100 0.0 102473
02:00+2сз2496100 0.0 102397
05:00+1с2598100 0.0 1023152
08:000с259587 0.0 1023164
11:00+4ссз358046 0.0 1023761
14:00+5ссз4571100 0.1 10221113
17:00+5ссз4570100 0.0 1021986
20:00+4ссз3678100 0.0 1022511
17 апреля, сб
сб1723:00+2ссз2889100 0.0 1023217
02:00+1с2587100 0.0 1023131
05:00−1с2489100 0.0 102278
08:00−1с25885 0.0 1023114
11:00+5ссз35625 0.0 1022896
14:00+6ссз445995 0.1 10211462
17:00+6ссз4561100 0.1 10211373
20:00+4сз2575100 0.1 1020510
18 апреля, вс
вс1823:00+3сз2283100 0.0 102060
02:00+2сз118699 0.0 102029
05:00+2зсз118892 0.0 101924
08:00+1юз119098 0.0 101834
11:00+6ююз236794 0.0 1016657
14:00+9ю4555100 0.0 10121491
17:00+6ююз3788100 2.3 10101000
20:00+5ю4895100 7.6 1006943
19 апреля, пн
пн1923:00+2зсз5997100 0.4 1006491
02:000ссз81596100 0.9 1008920
05:00−2ссз71594100 1.3 1011902
08:00−4ссз71593100 2.7 1014819
11:00−3ссз71386100 0.7 1016875
14:00−1ссз7968100 0.9 10171373
17:00+1ссз6861100 0.1 10181766
20:000ссз4876100 0.3 10191191